Location: Campolattaro
(41.2833°N, 14.7333°E)
Time: 06:44:26
(UTC+00:00)

Cosmos 1980 Rocket - Pass Details

Date: 19 May 2025
Orbit: 829 x 847 km, 71.0° (Epoch: 14 June)

Event Time Altitude Azimuth Distance (km) Brightness Sun altitude
Rises 19:04:40 0° 352° (N) 3,380 6.1 -8.4°
Reaches altitude 10° 19:09:47 10° 32° (NNE) 2,443 4.7 -9.2°
Maximum altitude 19:10:46 10° 42° (NE) 2,412 4.5 -9.4°
Drops below altitude 10° 19:11:46 10° 53° (NE) 2,442 4.5 -9.5°
Enters shadow 19:15:35 - 85° (E) 3,053 4.7 -10.1°
